Regional Weather Roundup
Issued by NWS

Home | Current Version | Previous Version | Text Only | Print | Product List | Glossary Off
Versions: 1 2 3 4 5 6 7 8 9 10 11 12 13 14 15 16 17 18 19 20 21 22 23 24 25 26 27 28 29 30 31 32 33 34 35 36 37 38 39 40 41 42 43 44 45 46 47 48 49 50

701
ASUS43 KIND 291909
RWRIN

WEATHER ROUNDUP FOR INDIANA
NATIONAL WEATHER SERVICE INDIANAPOLIS IN
300 PM EDT THU SEP 29 2016

NOTE: "FAIR" INDICATES FEW OR NO CLOUDS BELOW 12,000 FEET WITH NO
SIGNIFICANT WEATHER AND/OR OBSTRUCTIONS TO VISIBILITY.

* - STATION DOES NOT REPORT WEATHER SUCH AS PRECIPITATION OR FOG.

+ - STATION NOT QUALITY CONTROLLED BY THE NATIONAL WEATHER SERVICE.
    USE DATA WITH CAUTION...ESPECIALLY DEWPOINT AND RELATIVE
    HUMIDITY OBSERVATIONS.

INZ001>003-010>013-019-020-292000-
NORTHWEST INDIANA

CITY           SKY/WX    TMP DP  RH WIND       PRES   REMARKS
GARY /AIRPORT/ PTSUNNY   66  61  82 NE20G31   30.16S
KNOX *+        MOSUNNY   68  36  30 E12       30.11F
LA PORTE +     PTSUNNY   69  62  78 NE9       30.13F
MICHIGAN CITY+ CLOUDY    63  63 100 CALM      30.15S
MONTICELLO +   PTSUNNY   69  49  49 E6        30.09F
RENSSELAER +   PTSUNNY   70  57  64 N8G16     30.11S
VALPARAISO     CLOUDY    65  57  75 N12       30.13F

$$

LMZ046-743>745-292000-
SOUTHERN LAKE MICHIGAN

STATION/POSITION TIME  TEMP    WIND        PRES    WAVE
                       AIR SEA DIR/SP/G            HT
                 (UTC) (F)     (DEG/KT/KT) (MB)    (FT)
BURNS HARBOR     1840   64      50/ 17/ 20 1021.0F
MICHIGAN CITY    1840   62      10/ 18/ 20   N/A
5NW MICH CITY    1900   63 65   30/ 17/ 23   N/A     7

$$

INZ004-005-014>016-021>024-292000-
NORTH CENTRAL INDIANA

CITY           SKY/WX    TMP DP  RH WIND       PRES   REMARKS
ELKHART        PTSUNNY  N/A N/A N/A NE14      30.12S
GOSHEN         CLOUDY    67  54  63 NE13G23   30.12S
LOGANSPORT +   PTSUNNY   66  52  59 E6        30.11S
PERU/GRISSOM   MOSUNNY   67  53  60 NE10      30.08F
ROCHESTER +    CLOUDY    72  55  56 NE9       30.10F
SOUTH BEND     CLOUDY    66  58  75 NE12      30.14R
WARSAW +       MOSUNNY   68  50  52 E13       30.11F

$$

INZ006>009-017-018-025>027-292000-
NORTHEAST INDIANA

CITY           SKY/WX    TMP DP  RH WIND       PRES   REMARKS
ANGOLA *+        N/A    N/A N/A N/A E14       30.13F
AUBURN +       PTSUNNY   70  52  52 NE14      30.13R
FORT WAYNE     PTSUNNY   66  52  60 E10G18    30.11S
HUNTINGTON +   MOSUNNY   68  52  57 E7        30.10S
KENDALLVILLE + PTSUNNY   67  54  62 NE13      30.13S

$$

INZ028-029-035-036-043>045-051>053-292000-
WEST CENTRAL INDIANA

CITY           SKY/WX    TMP DP  RH WIND       PRES   REMARKS
CRAWFORDSVL +  PTSUNNY   64  52  64 N6        30.09F
GREENCASTLE +  PTSUNNY   63  54  72 N7        30.09F
LAFAYETTE      PTSUNNY   67  54  63 NE14      30.09F
TERRE HAUTE    CLOUDY    65  52  62 N8        30.10S

$$

INZ030>032-037>040-046>048-054>057-064-065-292000-
CENTRAL INDIANA

CITY           SKY/WX    TMP DP  RH WIND       PRES   REMARKS
ANDERSON       PTSUNNY   64  52  63 N6        30.09
COLUMBUS       PTSUNNY   66  55  68 N7        30.07F
FISHERS *+     MOSUNNY   66  54  63 NE5       30.09S
FRANKFORT +    PTSUNNY   68  53  59 NE7G16    30.11S
GREENWOOD *+   MOSUNNY   66  54  63 E6        30.08F
INDIANAPOLIS   PTSUNNY   64  52  64 N5        30.08F
-EAGLE CREEK   PTSUNNY   66  51  58 NE7       30.08F
KOKOMO *+      PTSUNNY   67  51  56 E14       30.10S
MARION +       CLOUDY    65  51  61 NE10G16   30.11R
MT COMFORT *+  PTSUNNY   66  50  55 E5        30.08S
SHELBYVILLE    PTSUNNY   66  50  56 MISG      30.07S
ZIONSVILLE +   PTSUNNY   65  51  62 NE8       30.10R

$$

INZ033-034-041-042-049-050-058-059-292000-
EAST CENTRAL INDIANA

CITY           SKY/WX    TMP DP  RH WIND       PRES   REMARKS
MUNCIE         PTSUNNY   69  51  52 NE10      30.08S

$$

INZ060-061-067>069-081>083-085>088-292000-
SOUTHWEST INDIANA

CITY           SKY/WX    TMP DP  RH WIND       PRES   REMARKS
EVANSVILLE     CLOUDY    64  53  67 NE5       30.10R
HUNTINGBURG *+   N/A     64  54  68 NW9       30.09S
WASHINGTON +   PTSUNNY   64  53  67 MISG      30.08F

$$

INZ062-063-066-070>080-084-089>092-292000-
SOUTH CENTRAL AND SOUTHEAST INDIANA

CITY           SKY/WX    TMP DP  RH WIND       PRES   REMARKS
BEDFORD +      CLOUDY   N/A N/A N/A N5        30.07S
BLOOMINGTON    CLOUDY    65  51  60 N8        30.08S
MADISON *+     CLOUDY    59  48  67 CALM      30.09S
NORTH VERNON + MOSUNNY   64  57  77 E7        30.08S
SEYMOUR +      CLOUDY    64  52  63 NE7       30.07S

$$





USA.gov is the U.S. government's official web portal to all federal, state and local government web resources and services.